Wind_Speed
26 26 26 27 28 27 25 24 23 23 22 22 23 23 23 23 23 23 20 19 18 18 17 16 16 16 16 15 14 13 13 13 13 12 12 11 11 10 10 9 8 8 8 7 7 6 6 5 5
27 27 27 28 28 27 25 25 24 24 24 23 24 24 24 25 24 23 22 21 20 19 19 18 17 17 17 17 16 15 14 13 13 13 13 12 12 11 10 10 9 9 9 8 8 7 7 6 6
28 28 29 29 29 27 25 26 26 26 25 24 24 25 26 25 25 24 23 22 21 21 20 20 19 19 18 18 17 16 15 15 14 14 14 13 13 12 11 11 10 10 10 9 9 8 8 7 7
29 30 30 31 29 27 27 26 26 27 27 26 26 26 26 26 26 25 24 23 23 22 22 22 21 20 19 19 19 18 17 16 16 15 15 15 14 14 13 12 12 11 11 10 10 9 9 9 8
31 32 32 31 30 29 29 27 28 28 28 27 27 28 27 27 26 26 26 25 24 24 23 23 23 22 21 21 20 20 19 18 18 17 17 16 16 15 15 14 14 13 12 11 11 11 10 10 9
33 34 34 32 31 31 30 29 29 29 29 29 29 29 28 28 28 28 27 27 26 26 25 25 24 24 23 22 22 22 21 20 19 19 19 18 17 17 16 15 15 14 13 13 12 12 12 11 11
36 36 35 33 32 32 31 30 31 30 30 30 30 31 30 30 30 29 29 29 28 27 27 27 26 26 25 24 24 23 23 22 21 21 20 20 20 19 18 17 16 15 15 14 14 13 13 13 12
38 38 37 35 34 33 33 33 33 32 32 32 32 33 32 31 32 31 31 31 30 29 29 29 28 28 27 26 26 25 24 24 23 22 22 22 21 21 20 19 18 17 16 16 16 15 14 14 13
40 40 38 35 35 35 34 35 35 34 33 33 34 34 34 33 33 32 32 32 31 31 30 30 29 29 28 28 27 27 26 25 25 24 23 23 23 22 21 21 20 19 18 17 17 16 16 15 15
42 42 38 37 38 38 37 37 36 36 35 35 35 36 36 34 34 34 33 33 32 32 32 32 31 31 30 29 29 29 28 27 27 26 25 24 24 24 23 22 22 21 20 20 19 18 17 17 17
44 42 40 40 40 40 39 39 39 38 37 37 37 37 37 36 35 35 35 34 33 33 33 33 32 32 31 31 30 30 30 29 28 28 27 26 26 26 26 25 24 23 23 22 21 20 19 19 18
45 44 43 43 43 42 42 42 41 40 39 38 38 38 39 38 37 37 36 35 35 34 34 33 33 33 33 32 32 31 31 30 30 29 28 27 27 27 27 26 26 26 25 24 24 22 21 20 20
46 45 46 46 45 45 45 44 44 42 41 40 40 39 40 40 40 39 38 37 36 35 35 34 34 34 35 34 33 33 32 31 31 31 30 29 29 28 28 27 27 27 27 27 26 25 23 22 22
47 47 48 48 47 47 47 47 46 43 42 42 42 41 41 41 40 40 39 39 38 37 36 36 35 35 35 35 35 35 35 33 33 32 32 31 31 31 29 29 29 29 28 28 28 26 25 24 24
50 50 50 49 49 48 49 49 47 44 44 44 43 43 42 42 42 41 40 40 39 39 38 37 37 36 36 36 36 36 36 36 35 34 33 32 32 31 30 31 31 31 30 29 29 28 27 26 25
51 52 51 49 49 49 50 49 47 46 46 46 45 44 43 43 43 42 41 41 40 40 40 39 39 38 37 37 37 37 37 37 36 36 35 35 34 33 32 32 32 32 32 31 31 30 29 28 27
53 52 51 50 50 50 51 50 48 47 47 47 46 45 44 44 43 42 42 41 41 41 41 41 40 39 38 38 36 37 37 37 38 37 37 36 36 35 33 33 33 33 32 32 32 31 31 30 29
51 52 51 51 51 51 51 50 48 48 48 47 47 46 46 45 44 43 42 41 41 41 41 41 41 40 39 39 38 37 37 38 39 38 37 37 37 36 35 35 34 34 34 33 32 32 31 31 30
50 51 51 51 52 52 51 50 48 49 49 48 47 46 46 45 45 44 43 42 41 41 41 40 41 41 40 40 38 37 37 38 38 38 38 37 37 36 35 35 35 35 35 34 33 32 32 32 31
51 51 51 51 52 52 51 51 49 49 48 48 48 47 46 46 45 44 43 43 42 41 40 40 40 41 40 40 39 38 38 38 38 38 38 38 37 36 36 36 36 36 36 35 35 34 34 33 33
50 50 49 50 51 52 51 51 50 49 48 47 48 47 46 46 45 44 44 43 42 42 41 40 40 40 40 39 39 39 39 38 38 38 38 38 37 37 36 36 36 36 37 37 36 35 35 34 34
48 47 47 47 49 51 51 52 49 49 48 48 47 46 46 45 45 45 44 43 42 42 41 41 40 40 40 39 39 39 39 38 37 38 38 39 38 37 37 37 38 38 37 36 36 35 36 35 35
46 45 46 46 47 49 49 51 49 48 48 48 47 45 45 45 45 45 44 44 43 42 41 41 40 40 39 39 39 39 39 39 38 38 39 39 39 39 38 38 38 38 38 38 37 37 37 36 36
43 44 44 45 45 48 46 48 48 45 45 45 45 45 45 44 44 44 44 44 43 42 41 41 40 40 40 40 39 39 39 39 38 38 39 39 39 39 39 39 39 39 39 39 38 38 37 38 37
40 41 42 43 45 45 43 46 46 43 42 43 43 44 44 44 44 44 44 44 43 42 41 40 40 40 39 39 38 38 39 39 39 38 39 39 39 39 40 40 39 39 39 40 39 39 39 39 39
38 39 40 41 42 41 40 43 43 41 42 43 43 43 43 43 43 43 43 44 43 42 42 41 40 40 39 39 38 38 39 39 39 38 39 40 40 40 41 40 40 40 39 40 40 40 40 40 40
37 38 38 38 40 40 40 42 42 42 42 43 42 42 42 43 42 42 43 43 43 42 41 40 40 39 38 38 38 38 38 39 39 38 39 40 40 41 41 41 40 40 40 40 39 39 40 41 41
35 36 36 38 39 38 38 39 41 42 42 43 43 42 41 42 41 41 42 42 43 43 42 41 40 40 39 38 38 38 39 40 40 38 38 39 39 40 40 41 41 41 41 40 40 40 40 41 41
32 34 35 36 37 37 36 38 39 40 41 42 42 42 42 42 41 41 41 41 42 43 42 41 41 40 40 40 39 39 40 40 40 39 39 39 39 40 40 41 42 41 41 41 40 40 40 41 41
30 32 34 34 34 35 35 36 38 39 41 41 42 42 42 42 42 42 41 41 41 42 42 42 42 41 40 40 40 40 40 40 40 40 39 39 40 40 41 42 42 43 42 42 41 41 41 42 42
Wind_Direction
245 244 244 243 243 243 243 242 241 239 240 239 239 238 239 241 242 243 244 242 239 238 238 238 238 239 239 238 237 235 233 231 229 227 225 225 226 226 227 228 230 229 226 223 221 220 220 220 221
246 244 243 243 244 244 242 242 241 241 240 240 240 240 240 241 242 244 243 241 239 238 238 238 238 238 239 238 237 235 233 233 231 230 229 228 229 230 230 233 235 235 233 231 230 229 230 227 226
245 243 244 244 245 245 245 243 242 242 241 240 240 240 240 241 242 243 244 242 240 239 238 238 238 238 237 238 238 236 234 234 233 233 232 231 232 231 232 235 236 237 236 235 234 234 234 233 230
245 244 245 245 245 245 247 246 245 243 242 240 240 240 240 241 242 244 244 243 241 239 239 239 239 238 237 238 238 238 238 236 236 236 237 237 236 235 237 238 238 237 236 236 236 236 236 236 235
245 245 246 247 246 245 246 247 246 244 243 241 241 240 240 241 242 243 244 244 242 241 241 241 240 239 238 238 239 239 240 240 239 239 240 240 241 241 241 239 239 238 237 236 236 236 237 239 238
246 246 248 248 247 246 246 246 247 245 243 242 241 241 240 241 242 243 243 244 243 242 242 242 242 241 240 239 239 239 240 242 242 242 243 244 244 244 242 240 239 238 238 237 238 238 237 240 241
248 248 248 248 247 247 247 246 246 246 245 244 243 243 242 242 243 244 244 244 244 243 242 243 242 242 241 241 240 240 241 243 244 244 245 245 246 246 244 241 238 239 240 241 241 241 239 240 241
249 249 249 248 248 248 247 246 246 245 246 246 245 244 244 242 244 244 244 244 244 243 242 242 242 242 242 241 241 241 242 244 245 246 246 246 246 246 244 241 238 239 241 243 244 243 242 242 244
249 250 249 249 249 248 247 246 246 245 246 246 246 245 245 244 244 244 244 244 245 244 242 242 243 243 243 242 242 242 243 244 246 247 247 246 247 247 245 243 239 240 241 244 245 245 244 245 246
250 251 251 250 248 247 246 246 246 245 245 246 246 246 246 244 244 244 244 244 244 243 243 243 243 244 244 244 243 243 244 244 245 247 247 247 246 246 244 243 241 241 243 245 247 247 246 247 249
252 252 250 249 248 247 247 246 246 246 246 246 247 247 246 245 244 244 245 244 243 243 243 243 244 244 245 244 244 244 244 245 245 246 247 248 247 245 244 243 242 242 244 246 248 249 249 249 249
252 250 249 248 247 247 247 247 246 246 246 247 247 247 247 246 245 245 245 245 244 244 243 244 244 245 245 244 244 244 245 245 246 247 246 246 246 246 244 244 243 243 245 247 248 249 250 250 250
251 250 249 248 247 247 247 247 247 246 247 247 247 248 247 246 245 245 245 245 245 245 245 245 245 245 245 243 243 243 245 246 246 245 244 245 246 246 246 244 245 246 247 247 248 249 249 250 251
251 250 249 247 247 247 247 247 247 246 246 246 246 247 247 246 245 245 245 246 245 245 246 246 246 246 245 244 243 244 245 246 247 246 244 246 246 246 246 246 246 247 249 249 248 248 249 250 251
251 250 248 248 247 247 247 246 247 247 246 245 245 245 246 246 245 245 246 246 246 246 246 247 247 247 246 245 245 245 246 247 247 245 245 246 246 245 246 247 247 247 248 249 249 248 249 250 251
249 249 248 247 247 247 246 246 245 245 245 244 244 244 245 246 246 246 246 246 246 246 246 247 247 246 246 246 246 246 248 248 247 245 246 247 246 246 246 247 247 246 247 249 249 249 249 250 251
248 248 248 247 246 246 246 245 244 244 244 244 244 244 244 245 246 246 246 246 246 246 246 246 246 246 246 247 248 247 247 247 246 245 247 247 247 246 246 245 246 246 246 248 249 250 250 250 250
249 249 248 248 247 246 246 245 244 243 243 243 243 243 244 244 245 246 246 246 245 246 246 246 245 245 246 247 246 245 246 246 246 246 247 247 247 246 245 246 245 246 246 247 249 250 250 250 250
248 248 248 247 248 247 245 244 243 243 242 242 242 242 243 244 244 245 245 245 245 245 245 245 245 244 245 245 245 244 245 245 245 247 247 246 246 245 245 245 245 245 246 247 247 249 250 250 251
244 245 246 246 246 247 245 244 242 242 242 241 241 242 242 242 243 243 244 244 245 244 245 245 244 244 244 244 243 245 245 244 244 244 245 245 244 244 244 244 245 245 246 247 248 249 251 251 252
243 245 246 247 246 246 245 243 242 242 242 242 242 242 241 241 242 242 242 243 244 244 245 245 244 243 243 243 243 243 243 245 244 243 244 244 243 243 244 244 244 245 247 247 248 250 251 252 253
244 243 245 245 245 245 244 244 241 242 242 242 242 241 241 240 241 241 242 242 243 244 244 244 243 242 243 242 243 244 245 245 244 243 243 243 243 243 245 246 246 246 246 247 248 250 252 253 254
244 242 242 243 244 245 243 245 242 242 242 241 241 241 240 239 239 240 241 241 242 243 243 243 243 242 242 242 244 244 244 243 244 243 242 242 242 242 244 247 247 247 248 248 248 250 253 253 254
243 241 241 241 242 243 242 244 243 242 242 242 241 240 239 238 237 238 239 240 240 241 242 242 243 242 242 242 243 243 243 243 244 244 243 242 242 242 245 246 247 248 248 249 249 252 253 253 254
239 239 239 240 240 243 241 242 242 241 241 241 240 239 238 237 237 237 238 239 239 240 241 241 241 241 241 241 241 241 242 243 244 245 244 242 242 244 246 246 247 248 250 250 251 252 254 253 255
236 236 237 239 241 242 240 240 239 239 239 240 239 238 238 237 237 238 238 238 239 239 240 241 241 240 240 240 240 241 242 243 242 244 244 243 243 245 245 246 247 249 250 251 252 253 254 254 255
236 234 235 237 238 239 241 240 238 238 238 240 239 237 238 238 237 237 238 238 237 238 240 241 241 240 240 240 240 240 241 241 241 243 243 244 245 246 245 246 248 248 249 251 252 253 255 256 256
236 233 232 232 234 236 238 238 237 237 237 238 238 237 237 238 238 237 238 238 237 237 239 240 240 240 240 241 241 241 241 241 243 244 244 245 246 246 246 247 248 249 250 252 254 255 256 256 257
235 232 231 232 233 234 234 234 236 239 239 240 239 238 236 237 237 237 238 238 237 238 238 239 239 241 242 242 242 241 242 243 244 244 244 244 245 245 246 247 248 249 250 253 256 256 257 257 257
234 231 231 232 232 232 234 234 235 237 239 239 239 238 237 237 237 238 238 238 238 238 238 238 239 241 241 241 242 242 241 242 244 244 245 245 246 244 245 246 247 249 251 253 255 257 257 258 258
Height
5803 5804 5806 5808 5810 5811 5814 5817 5818 5820 5822 5824 5825 5827 5828 5830 5832 5835 5836 5837 5839 5840 5842 5843 5845 5846 5848 5849 5850 5851 5853 5854 5855 5856 5857 5858 5859 5860 5862 5862 5863 5864 5865 5866 5867 5867 5868 5869 5869
5798 5799 5802 5803 5804 5806 5810 5812 5814 5816 5818 5819 5821 5823 5824 5826 5827 5829 5831 5833 5835 5837 5839 5840 5842 5844 5845 5847 5848 5850 5851 5852 5853 5854 5856 5857 5858 5859 5860 5861 5862 5863 5864 5865 5866 5867 5867 5868 5869
5793 5794 5796 5798 5800 5803 5806 5807 5809 5811 5813 5815 5817 5819 5820 5822 5823 5825 5827 5829 5832 5834 5836 5837 5839 5841 5842 5844 5846 5847 5849 5850 5851 5852 5854 5855 5856 5857 5859 5860 5861 5862 5863 5864 5865 5866 5866 5867 5868
5787 5789 5791 5793 5795 5799 5800 5803 5804 5806 5808 5810 5812 5814 5816 5818 5820 5821 5823 5825 5828 5830 5832 5834 5836 5838 5839 5841 5843 5845 5846 5848 5849 5850 5851 5853 5854 5855 5857 5858 5859 5860 5861 5862 5863 5864 5865 5866 5867
5781 5783 5785 5787 5790 5793 5795 5797 5799 5800 5803 5805 5807 5809 5811 5813 5815 5817 5819 5821 5824 5826 5828 5830 5832 5834 5836 5838 5840 5842 5843 5845 5846 5848 5849 5850 5852 5853 5855 5856 5857 5858 5859 5860 5861 5863 5864 5865 5866
5775 5776 5779 5781 5785 5787 5789 5791 5793 5795 5797 5799 5801 5803 5806 5808 5810 5812 5814 5817 5819 5821 5824 5825 5827 5830 5832 5834 5836 5838 5840 5842 5843 5845 5846 5848 5849 5850 5852 5853 5855 5856 5857 5858 5860 5861 5862 5863 5864
5768 5769 5772 5775 5778 5780 5783 5785 5786 5789 5791 5794 5796 5797 5800 5802 5804 5807 5809 5811 5814 5816 5819 5821 5823 5825 5827 5830 5832 5834 5836 5838 5840 5841 5843 5844 5846 5847 5849 5851 5852 5854 5855 5856 5857 5858 5860 5861 5862
5759 5762 5764 5768 5771 5774 5776 5777 5779 5782 5785 5787 5789 5791 5794 5797 5798 5801 5803 5806 5808 5811 5813 5815 5818 5820 5822 5825 5827 5829 5832 5834 5835 5837 5839 5841 5842 5844 5846 5848 5849 5851 5852 5854 5855 5856 5857 5859 5860
5750 5754 5757 5762 5763 5766 5768 5770 5772 5775 5777 5779 5782 5785 5787 5790 5792 5795 5797 5800 5802 5805 5807 5810 5812 5815 5817 5820 5822 5824 5827 5829 5831 5833 5835 5837 5838 5840 5842 5844 5846 5848 5849 5851 5852 5853 5854 5856 5857
5740 5744 5751 5754 5755 5756 5759 5761 5764 5767 5770 5772 5775 5777 5779 5783 5786 5788 5791 5794 5796 5799 5801 5804 5806 5809 5811 5814 5816 5819 5821 5823 5826 5828 5830 5832 5834 5836 5838 5840 5842 5844 5846 5847 5849 5850 5851 5853 5854
5731 5736 5741 5742 5744 5747 5750 5753 5755 5759 5762 5765 5767 5770 5772 5776 5779 5781 5784 5787 5790 5792 5795 5798 5800 5803 5805 5807 5810 5812 5815 5817 5820 5822 5824 5827 5829 5831 5833 5835 5838 5840 5842 5844 5845 5847 5848 5850 5851
5721 5726 5729 5731 5734 5737 5740 5743 5746 5750 5755 5757 5759 5761 5764 5768 5771 5774 5777 5780 5783 5786 5788 5791 5793 5796 5798 5801 5803 5806 5809 5811 5814 5816 5819 5821 5823 5826 5828 5830 5833 5835 5837 5839 5841 5842 5844 5846 5847
5710 5715 5717 5720 5723 5726 5729 5732 5736 5741 5745 5748 5750 5753 5756 5760 5763 5766 5769 5772 5775 5778 5781 5784 5786 5789 5791 5794 5797 5800 5802 5805 5808 5810 5812 5815 5817 5820 5822 5825 5827 5830 5832 5834 5836 5838 5840 5842 5843
5699 5701 5704 5708 5711 5715 5718 5721 5726 5733 5735 5738 5741 5745 5748 5751 5754 5758 5761 5764 5768 5771 5774 5776 5779 5782 5784 5787 5790 5793 5795 5798 5801 5803 5806 5808 5810 5813 5816 5819 5822 5824 5827 5829 5831 5833 5835 5837 5838
5684 5687 5691 5696 5700 5703 5706 5710 5717 5723 5724 5728 5732 5735 5739 5742 5745 5749 5753 5756 5759 5763 5766 5768 5771 5774 5777 5779 5783 5785 5788 5791 5794 5797 5800 5802 5804 5807 5810 5813 5815 5818 5821 5823 5825 5827 5830 5832 5834
5670 5673 5677 5685 5687 5690 5694 5699 5708 5710 5713 5717 5722 5726 5729 5733 5737 5740 5744 5747 5751 5754 5757 5760 5763 5766 5769 5772 5775 5778 5780 5783 5786 5789 5792 5795 5798 5800 5803 5806 5809 5812 5814 5817 5819 5822 5824 5826 5828
5656 5660 5666 5672 5675 5677 5681 5688 5695 5698 5702 5706 5711 5716 5720 5723 5727 5731 5734 5738 5741 5744 5748 5751 5754 5757 5760 5764 5767 5769 5772 5775 5778 5781 5784 5787 5790 5793 5796 5799 5802 5805 5807 5810 5813 5815 5818 5820 5822
5646 5650 5654 5658 5662 5665 5669 5676 5682 5685 5690 5695 5700 5705 5709 5713 5718 5721 5725 5728 5732 5735 5738 5742 5745 5748 5752 5755 5758 5761 5764 5767 5770 5773 5776 5779 5782 5785 5789 5792 5795 5797 5801 5803 5806 5809 5811 5814 5816
5632 5635 5640 5645 5648 5651 5656 5663 5669 5673 5679 5684 5689 5694 5699 5704 5708 5711 5715 5719 5723 5726 5729 5733 5736 5740 5743 5746 5749 5752 5755 5758 5762 5764 5767 5770 5774 5777 5781 5784 5787 5790 5793 5796 5799 5802 5804 5807 5809
5617 5621 5627 5632 5635 5639 5644 5650 5656 5661 5667 5673 5678 5683 5689 5693 5697 5702 5706 5710 5714 5717 5721 5724 5727 5731 5734 5737 5741 5744 5747 5750 5753 5756 5759 5762 5766 5769 5773 5776 5780 5783 5786 5789 5792 5795 5797 5800 5802
5604 5610 5615 5619 5623 5626 5632 5637 5645 5651 5656 5662 5667 5673 5678 5683 5688 5692 5697 5701 5705 5709 5712 5715 5719 5722 5725 5729 5732 5735 5738 5741 5745 5748 5751 5754 5758 5762 5765 5768 5772 5775 5779 5782 5784 5787 5790 5793 5795
5592 5599 5603 5607 5610 5614 5620 5625 5634 5639 5645 5651 5657 5663 5668 5673 5678 5682 5687 5692 5696 5700 5703 5706 5709 5713 5717 5720 5723 5727 5731 5733 5737 5740 5743 5747 5750 5754 5757 5761 5764 5767 5770 5774 5777 5779 5782 5785 5787
5581 5587 5591 5595 5598 5603 5609 5614 5623 5628 5634 5640 5647 5653 5658 5663 5668 5672 5677 5682 5686 5690 5694 5697 5701 5704 5708 5712 5715 5718 5722 5725 5728 5732 5735 5739 5742 5746 5750 5753 5756 5759 5762 5766 5769 5771 5774 5776 5778
5571 5576 5580 5584 5587 5591 5600 5604 5610 5617 5624 5631 5637 5642 5647 5652 5658 5663 5667 5672 5677 5681 5685 5688 5692 5696 5700 5703 5706 5710 5713 5717 5720 5724 5727 5731 5735 5738 5742 5745 5748 5751 5754 5757 5760 5763 5765 5767 5769
5560 5565 5570 5572 5576 5582 5592 5594 5600 5609 5615 5620 5626 5632 5637 5642 5648 5653 5658 5663 5668 5672 5676 5680 5684 5687 5691 5695 5698 5701 5705 5709 5713 5716 5719 5723 5727 5731 5734 5737 5740 5743 5746 5749 5751 5754 5756 5758 5760
5550 5556 5561 5565 5569 5576 5581 5584 5592 5599 5604 5609 5616 5622 5627 5633 5638 5644 5648 5653 5658 5663 5667 5671 5675 5679 5682 5686 5690 5693 5696 5700 5704 5707 5711 5715 5719 5722 5725 5728 5731 5734 5737 5740 5742 5744 5747 5749 5751
5542 5546 5553 5558 5561 5567 5572 5577 5583 5589 5595 5600 5607 5613 5618 5623 5629 5634 5639 5644 5649 5653 5658 5662 5666 5670 5674 5678 5681 5685 5688 5692 5696 5699 5702 5706 5710 5713 5716 5720 5723 5725 5728 5731 5733 5735 5738 5740 5742
5534 5539 5544 5548 5553 5558 5564 5569 5574 5579 5585 5591 5597 5603 5608 5613 5619 5624 5629 5634 5639 5644 5648 5653 5657 5662 5666 5669 5673 5676 5680 5684 5688 5691 5694 5697 5701 5704 5708 5711 5714 5717 5720 5722 5724 5727 5728 5730 5732
5526 5531 5535 5541 5546 5552 5556 5563 5566 5570 5576 5581 5587 5593 5599 5604 5609 5615 5620 5624 5629 5634 5639 5644 5648 5653 5657 5661 5664 5668 5672 5676 5679 5682 5686 5689 5692 5696 5699 5702 5706 5708 5711 5713 5715 5718 5719 5721 5723
5519 5524 5528 5534 5538 5544 5549 5555 5558 5562 5567 5572 5578 5584 5589 5595 5600 5605 5610 5614 5619 5624 5629 5634 5639 5644 5648 5652 5655 5659 5663 5667 5670 5674 5677 5681 5684 5687 5690 5693 5696 5699 5702 5704 5706 5708 5710 5712 5713